Tracking 31027 objects as of 19-Jul-2025
HD Live streaming from Space Station
objects crossing your sky now

STARLINK-31858

Track STARLINK-31858 now!
10-day predictions
STARLINK-31858 is classified as:


NORAD ID: 59658
Int'l Code: 2024-084E
Perigee: 488.9 km
Apogee: 491.5 km
Inclination: 43.0 °
Period: 94.3 minutes
Semi major axis: 6861 km
RCS: Unknown
Launch date: May 6, 2024
Source: United States (US)
Launch site: AIR FORCE EASTERN TEST RANGE (AFETR)
Your satellite tracking list
MAROC TUBSAT
Track 1 satellite(s)




NASA's NSSDC Master Catalog

Two Line Element Set (TLE):
1 59658U 24084E   25199.58888074 -.00004662  00000-0 -16007-3 0  9992
2 59658  43.0018 283.6031 0001897 278.0059  82.0578 15.27560404 68570
Source of the keplerian elements: AFSPC